Alturas, CA

1:47 PM PDT on September 29, 2016 (GMT -0700)
Alturas Municipal

Weather History for KAAT - October, 2013

Change the Weather History Date:

Sunday, October 20, 2013

  Actual Average Record
Temperature  
Mean Temperature 48 °F 46 °F  
Max Temperature 74 °F 63 °F 85 °F (1915)
Min Temperature 22 °F 28 °F 11 °F (1996)
Degree Days  
Heating Degree Days 17 19  
Month to date heating degree days 425 328  
Since 1 July heating degree days 720 705  
Cooling Degree Days 0 0  
Month to date cooling degree days 0 0  
Year to date cooling degree days 280 156  
Moisture  
Dew Point 20 °F    
Average Humidity 43    
Maximum Humidity 74    
Minimum Humidity 12    
Precipitation  
Precipitation 0.00 in 0.04 in 0.52 in (1941)
Month to date precipitation 0.15 0.53  
Year to date precipitation 5.81 10.19  
Sea Level Pressure  
Sea Level Pressure 30.14 in    
Wind  
Wind Speed 2 mph (NE)    
Max Wind Speed 9 mph    
Max Gust Speed 13 mph    
Visibility 10 miles    
Events      
T = Trace of Precipitation, MM = Missing Value Source: NWS Daily Summary

Daily Weather History Graph

Daily Weather History Graph

Search for Another Location

Airport or City:

Trip Planner

Search our weather history database for the weather conditions in past years. The results will help you decide how hot, cold, wet, or windy it might be!

Date:

Astronomy

Oct. 20, 2013 Rise Set
Actual Time 7:20 AM PDT 6:13 PM PDT
Civil Twilight 6:52 AM PDT 6:41 PM PDT
Nautical Twilight 6:19 AM PDT 7:13 PM PDT
Astronomical Twilight 5:47 AM PDT 7:45 PM PDT
Moon 7:23 PM PDT (10/20) 9:04 AM PDT (10/20)
Length of Visible Light 11h 49m
Length of Day
10h 52m
Waning Gibbous, 97% of the Moon is Illuminated
Oct 20
Waning Gibbous
Oct 26
Last Quarter
Nov 3
New
Nov 9
First Quarter
Nov 17
Full

Hourly Weather History & Observations

Time (PDT) Temp. Windchill Dew Point Humidity Pressure Visibility Wind Dir Wind Speed Gust Speed Precip Events Conditions
12:55 AM 33.1 °F - 18.0 °F 54% 30.16 in 10.0 mi Calm Calm - N/A   Clear
1:55 AM 28.0 °F - 16.0 °F 61% 30.17 in 8.0 mi Calm Calm - N/A   Clear
2:55 AM 26.1 °F - 15.1 °F 63% 30.17 in 10.0 mi Calm Calm - N/A   Clear
3:55 AM 24.1 °F - 14.0 °F 65% 30.16 in 10.0 mi Calm Calm - N/A   Clear
4:55 AM 27.0 °F - 16.0 °F 63% 30.15 in 10.0 mi Calm Calm - N/A   Clear
5:55 AM 23.0 °F - 15.1 °F 72% 30.18 in 10.0 mi Calm Calm - N/A   Clear
6:55 AM 23.0 °F - 16.0 °F 74% 30.20 in 10.0 mi Calm Calm - N/A   Clear
7:55 AM 25.0 °F - 16.0 °F 69% 30.22 in 10.0 mi Calm Calm - N/A   Clear
8:55 AM 36.0 °F - 19.0 °F 50% 30.23 in 10.0 mi Calm Calm - N/A   Clear
9:55 AM 45.0 °F - 23.0 °F 42% 30.22 in 10.0 mi Calm Calm - N/A   Clear
10:55 AM 53.1 °F - 21.9 °F 30% 30.20 in 10.0 mi Calm Calm - N/A   Clear
11:55 AM 60.1 °F - 24.1 °F 25% 30.17 in 10.0 mi Calm Calm - N/A   Clear
12:55 PM 64.9 °F - 24.1 °F 21% 30.13 in 10.0 mi Calm Calm - N/A   Clear
1:55 PM 69.1 °F - 23.0 °F 18% 30.10 in 10.0 mi Variable 3.5 mph - N/A   Clear
2:55 PM 73.0 °F - 21.0 °F 14% 30.07 in 10.0 mi Variable 5.8 mph - N/A   Clear
3:55 PM 73.9 °F - 18.0 °F 12% 30.07 in 10.0 mi NE 4.6 mph - N/A   Clear
4:55 PM 73.0 °F - 18.0 °F 12% 30.06 in 10.0 mi Calm Calm - N/A   Clear
5:55 PM 68.0 °F - 21.0 °F 17% 30.08 in 10.0 mi North 5.8 mph - N/A   Clear
6:55 PM 57.9 °F - 21.9 °F 25% 30.12 in 10.0 mi NNE 4.6 mph - N/A   Clear
7:55 PM 57.0 °F - 24.1 °F 28% 30.13 in 10.0 mi NNE 5.8 mph - N/A   Clear
8:55 PM 55.0 °F - 23.0 °F 29% 30.12 in 10.0 mi NE 4.6 mph - N/A   Clear
9:55 PM 51.1 °F - 23.0 °F 33% 30.12 in 10.0 mi NNE 6.9 mph - N/A   Clear
10:55 PM 44.1 °F 41.5 °F 26.1 °F 49% 30.12 in 10.0 mi SE 4.6 mph - N/A   Clear
11:55 PM 39.9 °F 37.8 °F 23.0 °F 51% 30.12 in 10.0 mi SE 3.5 mph - N/A   Clear